Location: Unspecified
(22.6800°N, 112.2000°E)
Time: 12:58:00
(UTC+08:00)

Courier 1B - Visible Passes

Search period start: 31 July 2021 00:00
Search period end: 10 August 2021 00:00
Orbit: 962 x 1209 km, 28.3° (Epoch: 30 July)

Date Brightness Start Highest point End Pass type
(mag) Time Alt. Az. Time Alt. Az. Time Alt. Az.
31 Jul 8.3 20:26:27 10° W 20:34:14 64° N 20:41:07 13° ENE visible
31 Jul 8.4 22:21:39 10° WNW 22:27:59 52° NNW 22:27:59 52° NNW visible
01 Aug 8.2 19:32:15 10° W 19:40:07 71° NNW 19:47:48 10° ENE visible
01 Aug 8.3 21:27:26 10° WNW 21:35:05 56° N 21:37:26 41° NE visible
01 Aug 9.8 23:22:18 10° WNW 23:24:18 20° WNW 23:24:18 20° WNW visible
02 Aug 8.4 20:33:12 10° W 20:40:55 57° N 20:46:49 17° ENE visible
02 Aug 8.6 22:28:11 10° WNW 22:33:41 47° NW 22:33:41 47° NW visible
03 Aug 8.4 19:38:59 10° W 19:46:45 60° N 19:54:22 10° ENE visible
03 Aug 8.1 21:34:02 10° WNW 21:41:47 61° N 21:43:03 54° NE visible
03 Aug 10.0 23:28:46 10° WNW 23:29:55 15° WNW 23:29:55 15° WNW visible
04 Aug 8.3 20:39:53 10° WNW 20:47:38 58° N 20:52:23 24° ENE visible
04 Aug 8.9 22:34:39 10° WNW 22:39:15 39° WNW 22:39:15 39° WNW visible
05 Aug 8.5 19:45:43 10° WNW 19:53:26 57° N 20:01:04 10° ENE visible
05 Aug 7.8 21:40:33 10° WNW 21:48:24 75° NNE 21:48:34 75° NNE visible
05 Aug 10.3 23:35:21 10° W 23:35:26 10° W 23:35:26 10° W visible
06 Aug 8.1 20:46:27 10° WNW 20:54:18 67° N 20:57:54 34° E visible
06 Aug 9.3 22:41:08 10° WNW 22:44:46 30° W 22:44:46 30° W visible
07 Aug 8.3 19:52:22 10° WNW 20:00:08 61° N 20:07:14 13° E visible
07 Aug 7.9 21:47:00 10° WNW 21:54:06 73° W 21:54:06 73° W visible
08 Aug 7.9 20:52:56 10° WNW 21:00:51 84° NNE 21:03:28 47° E visible
08 Aug 9.7 22:47:51 10° W 22:50:20 21° W 22:50:20 21° W visible
09 Aug 8.1 19:58:54 10° WNW 20:06:46 73° NNE 20:12:50 18° E visible
09 Aug 8.4 21:53:35 10° WNW 21:59:42 49° WSW 21:59:42 49° WSW visible
